Temp
21 21 20 20 19 20 20 21 22 21 21 21 21 21 21 22 24 24 24 25 24 23 24 24 24 24 25 26 26 27 28 28 30 31 31 32 31 31 30 31 31 31
20 20 21 20 20 20 20 20 19 19 19 19 20 20 21 22 22 23 23 22 23 23 24 24 24 24 25 26 26 26 27 29 29 31 30 31 31 31 30 31 31 31
19 19 19 19 19 18 18 18 19 19 19 19 20 20 20 22 22 22 22 22 22 23 23 24 25 26 27 27 28 28 28 28 29 30 30 30 31 31 31 31 31 31
19 19 19 18 18 17 17 17 17 18 19 19 19 20 20 21 21 21 21 23 23 23 25 26 27 27 28 28 28 28 28 28 28 29 30 31 31 31 31 31 31 31
19 19 19 18 17 17 17 16 17 18 17 18 18 18 18 18 18 18 19 20 21 21 22 23 24 25 27 28 29 28 29 29 30 30 30 30 31 31 31 31 31 31
19 19 19 18 17 17 16 16 17 17 17 16 17 17 17 17 17 17 18 19 20 21 21 20 22 24 26 28 28 28 29 29 30 30 30 30 30 31 31 30 30 31
17 17 16 17 16 17 16 16 16 17 16 16 17 16 16 16 17 17 18 19 19 20 21 21 22 23 25 27 27 27 28 28 29 30 30 30 30 31 31 30 30 31
15 16 16 16 16 16 15 16 15 15 16 16 15 16 16 16 16 17 18 18 18 19 20 21 22 23 26 26 25 25 26 29 29 29 30 30 30 29 30 30 31 31
16 16 16 15 15 15 15 15 15 15 16 15 15 16 17 16 17 17 18 19 19 19 20 21 23 23 24 24 23 24 24 25 28 29 29 29 29 29 29 30 30 30
15 15 15 15 14 14 14 15 15 15 16 15 16 17 17 18 18 19 19 19 19 20 21 21 21 21 22 22 23 24 23 24 25 27 29 29 29 29 29 30 30 30
14 15 14 14 14 15 15 15 15 16 16 15 16 16 16 16 17 17 17 17 18 19 19 19 19 19 20 21 22 24 23 23 24 25 28 29 29 30 30 29 29 30
14 14 14 14 15 15 15 16 16 16 16 16 16 15 15 16 15 16 16 16 16 16 17 17 18 18 18 20 21 22 23 23 24 25 26 28 29 29 28 28 28 29
13 14 14 15 15 15 16 16 16 16 16 16 16 15 15 15 15 15 15 15 15 16 16 16 17 17 17 19 20 21 21 22 23 24 26 27 28 28 27 26 26 26
13 14 14 15 15 15 15 15 16 16 16 16 16 15 14 14 14 14 15 15 15 15 16 16 16 16 17 18 18 20 20 21 22 23 24 26 27 27 25 24 25 25
13 14 14 14 14 14 14 14 15 15 15 15 15 15 15 15 15 15 14 13 15 15 15 16 15 15 16 17 17 17 19 20 22 23 24 25 26 26 26 25 24 24
13 13 13 13 13 13 13 14 14 14 14 14 14 14 14 14 14 14 14 13 13 13 14 14 14 15 18 21 22 20 19 21 22 23 24 25 25 25 25 25 25 25
12 12 12 11 12 12 13 13 13 13 13 13 13 13 13 13 14 13 13 13 13 13 13 14 14 16 20 22 24 25 24 23 23 23 25 25 25 25 25 24 24 25
11 11 11 11 11 11 12 12 12 12 12 12 12 12 13 13 13 13 13 13 14 14 14 15 16 20 23 24 25 26 26 24 24 24 25 25 26 26 25 25 25 25
10 9 9 9 10 10 11 11 11 11 11 11 11 12 13 12 13 13 13 14 14 14 14 16 16 20 23 25 26 26 27 27 25 26 25 26 26 26 26 26 25 25
9 9 8 9 10 10 10 10 10 10 11 12 12 13 12 13 13 13 14 14 14 15 15 16 16 20 23 25 26 27 28 28 26 26 26 26 27 27 27 26 26 26
8 8 8 8 9 9 9 9 10 10 11 12 12 12 12 12 13 13 14 14 15 15 15 16 17 22 24 26 27 28 28 29 27 26 26 27 27 27 27 27 27 27
7 7 7 8 8 8 8 9 9 10 10 11 12 12 13 14 14 14 14 15 16 16 16 16 18 23 26 27 28 29 30 28 28 27 27 27 27 27 28 28 28 29
7 7 7 7 7 7 7 8 9 10 11 12 11 12 13 13 14 15 16 16 17 18 17 18 20 24 27 30 31 32 31 29 28 28 28 27 28 29 29 30 30 31
7 7 6 6 7 7 7 8 10 11 11 12 11 11 12 13 14 15 16 18 19 20 22 22 24 26 29 30 31 33 32 28 29 29 28 28 28 30 30 31 31 32
7 7 6 6 6 7 8 8 9 10 11 12 13 13 13 14 15 15 16 18 19 20 22 23 23 25 28 29 31 32 31 30 29 28 28 27 28 28 29 30 30 31
6 6 6 7 7 7 8 9 10 11 12 12 13 14 14 15 15 15 14 15 17 17 18 20 21 22 25 28 30 31 32 29 28 27 26 26 27 27 27 27 28 29
MSLP
1022.47 1022.39 1022.27 1022.07 1021.79 1021.63 1021.39 1021.03 1020.59 1020.39 1020.27 1020.15 1019.95 1019.67 1019.55 1019.35 1019.27 1019.15 1018.87 1018.59 1018.43 1018.31 1018.23 1018.11 1017.99 1017.83 1017.63 1017.47 1017.27 1017.07 1016.75 1016.39 1016.07 1015.75 1015.51 1015.39 1015.23 1015.15 1015.07 1015.03 1014.91 1014.83
1022.35 1022.23 1021.95 1021.67 1021.39 1021.19 1021.03 1020.99 1020.87 1020.67 1020.39 1020.23 1019.95 1019.71 1019.43 1019.27 1018.95 1018.71 1018.43 1018.35 1018.23 1018.03 1017.95 1017.79 1017.55 1017.27 1017.03 1016.83 1016.63 1016.47 1016.15 1015.83 1015.55 1015.31 1015.15 1015.03 1014.91 1014.83 1014.75 1014.63 1014.51 1014.43
1022.15 1021.95 1021.59 1021.27 1021.11 1021.19 1021.11 1020.95 1020.75 1020.47 1020.19 1019.83 1019.59 1019.35 1018.99 1018.71 1018.35 1018.31 1018.19 1018.03 1017.87 1017.67 1017.47 1017.27 1016.95 1016.67 1016.35 1016.07 1015.91 1015.75 1015.47 1015.19 1014.95 1014.83 1014.79 1014.59 1014.47 1014.43 1014.35 1014.23 1014.11 1014.03
1021.87 1021.51 1021.35 1021.27 1021.23 1021.07 1020.91 1020.71 1020.43 1020.19 1019.83 1019.51 1019.27 1019.07 1018.91 1018.63 1018.43 1018.27 1018.07 1017.79 1017.47 1017.19 1016.91 1016.67 1016.39 1016.11 1015.87 1015.63 1015.39 1015.03 1014.75 1014.55 1014.39 1014.39 1014.27 1014.03 1013.91 1013.91 1013.79 1013.75 1013.67 1013.59
1021.51 1021.15 1021.11 1021.19 1021.03 1020.87 1020.71 1020.51 1020.11 1019.83 1019.71 1019.55 1019.35 1019.15 1018.95 1018.75 1018.63 1018.39 1018.11 1017.87 1017.55 1017.15 1016.91 1016.59 1016.35 1016.07 1015.63 1015.11 1014.75 1014.31 1013.91 1013.75 1013.71 1013.71 1013.63 1013.47 1013.31 1013.27 1013.23 1013.27 1013.23 1013.19
1021.19 1021.07 1020.99 1020.87 1020.79 1020.63 1020.47 1020.19 1019.83 1019.71 1019.51 1019.35 1019.19 1019.03 1018.83 1018.67 1018.43 1018.15 1017.87 1017.55 1017.23 1016.91 1016.55 1016.35 1016.11 1015.71 1015.19 1014.63 1014.23 1013.75 1013.27 1012.99 1012.99 1013.03 1012.87 1012.83 1012.75 1012.71 1012.75 1012.79 1012.87 1012.79
1021.23 1021.07 1020.91 1020.75 1020.51 1020.35 1020.11 1019.95 1019.75 1019.47 1019.31 1019.11 1018.95 1018.79 1018.63 1018.35 1018.07 1017.75 1017.47 1017.19 1016.91 1016.59 1016.27 1015.99 1015.67 1015.19 1014.71 1014.19 1013.75 1013.35 1012.79 1012.55 1012.51 1012.43 1012.31 1012.31 1012.27 1012.23 1012.27 1012.35 1012.35 1012.35
1021.39 1021.07 1020.83 1020.51 1020.27 1020.07 1019.87 1019.63 1019.39 1019.23 1019.03 1018.79 1018.63 1018.39 1018.23 1017.91 1017.63 1017.35 1017.03 1016.83 1016.55 1016.27 1015.95 1015.51 1015.11 1014.67 1014.19 1013.91 1013.71 1013.43 1012.91 1012.27 1011.99 1011.91 1011.91 1011.91 1011.95 1011.91 1011.91 1011.95 1011.91 1011.91
1021.27 1020.95 1020.63 1020.35 1020.15 1019.83 1019.59 1019.35 1019.11 1018.87 1018.67 1018.43 1018.19 1017.95 1017.67 1017.43 1017.11 1016.83 1016.55 1016.31 1015.99 1015.67 1015.31 1014.91 1014.51 1014.27 1013.99 1013.75 1013.55 1013.31 1012.99 1012.63 1012.03 1011.51 1011.39 1011.43 1011.51 1011.55 1011.55 1011.55 1011.59 1011.59
1021.11 1020.75 1020.47 1020.19 1019.91 1019.59 1019.31 1019.03 1018.79 1018.51 1018.27 1018.03 1017.79 1017.51 1017.23 1016.87 1016.67 1016.39 1016.23 1015.99 1015.63 1015.03 1014.63 1014.47 1014.39 1014.11 1013.87 1013.59 1013.35 1013.11 1012.87 1012.59 1012.27 1011.63 1011.11 1010.91 1010.95 1011.03 1011.15 1011.19 1011.19 1011.27
1020.99 1020.63 1020.27 1019.91 1019.59 1019.27 1018.99 1018.67 1018.43 1018.15 1017.91 1017.67 1017.47 1017.23 1016.95 1016.75 1016.55 1016.35 1016.15 1015.87 1015.47 1015.03 1014.75 1014.55 1014.35 1014.15 1013.83 1013.47 1013.15 1012.87 1012.67 1012.39 1012.07 1011.75 1011.11 1010.59 1010.47 1010.51 1010.59 1010.71 1010.83 1010.87
1020.87 1020.47 1020.03 1019.67 1019.35 1018.99 1018.67 1018.35 1018.03 1017.75 1017.47 1017.23 1017.07 1016.83 1016.63 1016.43 1016.19 1016.03 1015.87 1015.67 1015.43 1015.15 1014.87 1014.55 1014.27 1013.99 1013.71 1013.31 1012.99 1012.67 1012.39 1012.15 1011.91 1011.59 1011.19 1010.63 1010.27 1010.15 1010.27 1010.39 1010.55 1010.63
1020.75 1020.31 1019.91 1019.55 1019.15 1018.75 1018.39 1018.07 1017.75 1017.43 1017.19 1016.91 1016.67 1016.51 1016.27 1016.03 1015.83 1015.63 1015.43 1015.27 1014.99 1014.75 1014.51 1014.27 1013.99 1013.71 1013.47 1013.11 1012.71 1012.39 1012.15 1011.95 1011.71 1011.39 1011.03 1010.71 1010.39 1010.23 1010.15 1010.23 1010.31 1010.39
1020.63 1020.19 1019.87 1019.47 1019.07 1018.71 1018.31 1017.95 1017.59 1017.27 1016.99 1016.67 1016.43 1016.15 1015.91 1015.67 1015.47 1015.23 1014.95 1014.75 1014.51 1014.31 1014.07 1013.83 1013.59 1013.35 1013.07 1012.83 1012.55 1012.23 1012.03 1011.79 1011.55 1011.27 1010.95 1010.63 1010.31 1010.15 1010.11 1010.15 1010.19 1010.23
1020.55 1020.19 1019.83 1019.43 1019.03 1018.63 1018.23 1017.83 1017.47 1017.11 1016.75 1016.43 1016.11 1015.83 1015.51 1015.27 1014.99 1014.79 1014.55 1014.27 1013.99 1013.79 1013.55 1013.31 1013.15 1012.87 1012.63 1012.39 1012.23 1011.95 1011.83 1011.63 1011.31 1011.03 1010.79 1010.51 1010.23 1010.03 1009.99 1010.03 1010.03 1010.03
1020.63 1020.23 1019.79 1019.39 1018.95 1018.55 1018.11 1017.71 1017.31 1016.91 1016.55 1016.19 1015.83 1015.51 1015.19 1014.87 1014.63 1014.35 1014.11 1013.87 1013.63 1013.31 1013.07 1012.83 1012.59 1012.31 1011.99 1011.63 1011.39 1011.31 1011.23 1011.07 1010.87 1010.63 1010.43 1010.19 1010.03 1009.87 1009.79 1009.79 1009.75 1009.71
1020.67 1020.19 1019.75 1019.31 1018.87 1018.43 1017.99 1017.59 1017.15 1016.75 1016.35 1015.91 1015.55 1015.15 1014.79 1014.47 1014.15 1013.87 1013.59 1013.31 1013.03 1012.79 1012.47 1012.19 1011.91 1011.63 1011.27 1010.95 1010.63 1010.39 1010.39 1010.35 1010.31 1010.11 1009.95 1009.83 1009.71 1009.59 1009.51 1009.43 1009.39 1009.43
1020.67 1020.19 1019.71 1019.23 1018.79 1018.31 1017.87 1017.43 1016.99 1016.55 1016.11 1015.63 1015.19 1014.79 1014.39 1014.07 1013.71 1013.39 1013.03 1012.75 1012.47 1012.15 1011.83 1011.47 1011.15 1010.79 1010.43 1010.15 1009.91 1009.71 1009.67 1009.67 1009.63 1009.59 1009.51 1009.39 1009.31 1009.23 1009.19 1009.11 1009.07 1009.07
1020.71 1020.23 1019.71 1019.15 1018.67 1018.19 1017.71 1017.23 1016.79 1016.31 1015.79 1015.35 1014.95 1014.47 1014.03 1013.63 1013.23 1012.91 1012.51 1012.15 1011.91 1011.59 1011.23 1010.91 1010.55 1010.11 1009.79 1009.43 1009.19 1009.03 1008.95 1008.95 1008.95 1008.87 1008.95 1008.91 1008.87 1008.79 1008.79 1008.79 1008.79 1008.83
1020.71 1020.19 1019.67 1019.11 1018.59 1018.07 1017.59 1017.07 1016.63 1016.11 1015.59 1015.11 1014.55 1014.03 1013.67 1013.27 1012.87 1012.51 1012.03 1011.71 1011.39 1011.07 1010.67 1010.27 1009.95 1009.51 1009.15 1008.79 1008.55 1008.35 1008.27 1008.27 1008.31 1008.31 1008.31 1008.31 1008.31 1008.31 1008.31 1008.35 1008.39 1008.51
1020.71 1020.15 1019.59 1019.03 1018.47 1017.95 1017.43 1016.91 1016.43 1015.83 1015.27 1014.75 1014.31 1013.87 1013.43 1012.95 1012.47 1012.07 1011.59 1011.23 1010.83 1010.51 1010.15 1009.79 1009.35 1008.79 1008.39 1008.03 1007.83 1007.63 1007.51 1007.51 1007.55 1007.67 1007.71 1007.67 1007.71 1007.75 1007.79 1007.79 1007.83 1007.91
1020.75 1020.19 1019.59 1018.99 1018.43 1017.83 1017.35 1016.75 1016.15 1015.63 1015.03 1014.43 1013.99 1013.47 1012.99 1012.55 1012.07 1011.67 1011.23 1010.75 1010.35 1010.07 1009.71 1009.23 1008.67 1008.11 1007.67 1007.27 1007.03 1006.83 1006.63 1006.67 1006.71 1006.83 1006.91 1006.99 1007.07 1007.15 1007.19 1007.23 1007.27 1007.35
1020.79 1020.19 1019.59 1018.99 1018.47 1017.87 1017.27 1016.63 1015.99 1015.35 1014.79 1014.27 1013.79 1013.23 1012.71 1012.23 1011.79 1011.31 1010.87 1010.43 1009.91 1009.47 1009.23 1008.71 1008.07 1007.55 1007.07 1006.55 1006.03 1005.55 1005.39 1005.55 1005.67 1005.83 1005.99 1006.19 1006.31 1006.39 1006.47 1006.51 1006.55 1006.59
1020.75 1020.23 1019.71 1019.07 1018.43 1017.83 1017.19 1016.55 1015.95 1015.31 1014.71 1014.15 1013.79 1013.15 1012.59 1012.11 1011.63 1011.03 1010.43 1009.99 1009.51 1008.95 1008.47 1007.99 1007.35 1006.91 1006.47 1006.11 1005.59 1005.07 1004.71 1004.71 1004.79 1004.91 1005.15 1005.39 1005.59 1005.71 1005.79 1005.83 1005.87 1005.99
1020.79 1020.19 1019.67 1019.07 1018.39 1017.75 1017.15 1016.51 1015.83 1015.23 1014.55 1013.99 1013.51 1012.99 1012.47 1011.91 1011.43 1011.03 1010.35 1009.75 1009.35 1008.95 1008.35 1007.87 1007.39 1006.83 1006.39 1006.03 1005.59 1005.19 1004.91 1004.75 1004.71 1004.83 1004.83 1005.03 1005.15 1005.27 1005.35 1005.35 1005.43 1005.51
1020.79 1020.11 1019.51 1018.99 1018.35 1017.63 1017.03 1016.43 1015.79 1015.11 1014.47 1013.91 1013.27 1012.87 1012.35 1011.79 1011.35 1010.95 1010.51 1009.79 1009.19 1008.79 1008.31 1007.83 1007.47 1006.95 1006.55 1006.07 1005.63 1005.35 1005.07 1004.95 1004.91 1004.91 1004.99 1005.07 1005.19 1005.23 1005.31 1005.39 1005.43 1005.47
Wind_Speed
9 8 10 11 12 11 13 14 11 11 10 10 9 8 8 7 9 11 12 10 7 7 8 10 10 12 12 12 11 11 11 12 11 10 10 10 10 10 11 10 10 8
10 12 13 13 12 12 8 8 10 11 11 11 10 11 10 11 12 11 7 6 8 9 10 12 13 13 13 11 11 11 11 11 12 9 11 12 10 11 11 12 11 9
12 14 15 14 9 8 9 10 10 11 12 12 12 10 11 11 9 6 8 9 9 10 11 11 13 14 13 12 11 11 11 12 12 10 10 12 11 11 11 11 10 11
14 14 9 7 8 9 9 11 12 11 10 9 8 7 8 9 8 9 9 11 10 10 10 10 11 10 10 12 12 12 12 12 11 9 10 10 11 11 11 10 10 9
14 13 9 9 8 10 11 12 12 9 9 10 10 9 9 9 9 9 8 9 10 11 10 11 11 13 13 11 11 13 12 11 11 11 11 11 10 10 10 10 10 10
13 12 12 11 9 10 11 12 12 10 10 10 10 10 9 10 10 10 10 10 10 11 11 10 11 12 10 11 9 11 11 10 9 11 12 12 11 10 9 9 10 10
14 13 12 11 12 11 12 12 11 13 11 10 10 9 9 10 10 10 10 10 10 12 13 12 12 12 12 11 9 10 11 10 10 12 11 10 9 9 9 8 9 9
14 12 12 12 13 12 12 11 9 8 10 10 9 10 10 11 11 10 10 11 12 13 14 13 13 14 11 7 7 9 10 9 10 10 11 10 8 8 9 8 8 9
14 14 13 14 14 12 11 11 10 10 9 10 9 9 9 10 10 10 10 11 12 13 13 13 11 8 8 7 7 8 9 9 10 11 11 10 9 9 9 9 9 9
14 14 14 13 12 10 11 10 10 10 9 10 11 11 11 10 10 11 11 12 13 12 10 8 9 8 9 8 8 9 8 8 10 10 10 10 10 9 10 9 9 9
15 14 14 14 14 13 15 14 12 11 12 12 11 12 11 10 10 10 11 11 12 12 11 10 10 10 10 10 9 8 8 8 10 10 10 9 9 9 10 9 9 9
15 14 15 15 15 15 15 14 14 14 13 12 11 12 10 9 9 9 9 12 12 12 12 11 11 10 11 11 11 10 8 8 8 9 10 8 6 8 7 7 7 8
14 14 14 14 14 14 14 14 14 14 13 13 11 11 10 9 9 9 9 9 10 10 11 11 11 10 10 11 11 10 9 9 9 9 9 9 7 6 5 5 6 6
14 14 14 14 14 14 14 14 14 14 13 13 12 12 10 10 10 10 9 9 10 10 10 9 11 10 10 11 10 9 8 9 9 8 8 9 8 6 5 5 6 6
14 14 13 14 15 14 14 14 14 14 14 13 12 11 10 11 11 12 11 10 10 9 11 10 9 10 8 7 8 9 10 10 10 9 9 9 8 7 6 6 6 6
15 14 14 14 14 15 14 14 14 14 13 13 13 13 11 11 12 12 11 11 11 11 10 9 9 8 13 21 18 11 9 9 9 9 8 8 8 7 7 6 7 7
15 14 14 15 14 14 14 14 15 13 13 13 13 12 12 12 12 11 10 10 11 11 11 10 9 9 19 20 21 22 15 10 10 9 8 8 8 8 8 7 6 7
14 15 15 15 15 15 15 14 14 13 14 14 12 12 12 11 11 11 10 10 10 10 10 10 9 14 19 19 20 20 18 12 9 9 8 8 8 8 8 7 7 7
15 15 15 15 14 14 14 14 13 13 13 12 13 13 12 11 11 11 11 10 10 11 11 10 10 16 19 20 20 20 20 16 9 9 9 9 8 9 9 8 7 7
15 15 15 15 14 15 14 13 12 13 12 12 12 11 10 11 11 12 11 10 10 11 10 10 11 16 20 20 20 20 19 16 10 11 9 10 10 10 9 9 9 8
16 16 16 15 15 14 14 13 13 13 13 10 9 10 11 10 10 10 10 11 10 9 9 10 10 18 19 19 19 19 19 16 11 11 10 10 10 10 10 10 10 9
16 16 15 14 14 14 13 14 13 12 12 11 10 10 9 9 9 9 10 10 10 9 9 9 10 18 18 19 19 18 19 12 11 12 11 11 11 11 11 11 10 10
16 16 15 14 14 14 14 13 13 13 12 10 10 10 10 9 9 9 9 10 10 9 9 9 10 13 16 15 15 16 16 11 11 11 11 12 11 11 12 11 11 11
16 15 15 15 15 14 14 13 12 11 11 10 10 10 10 10 9 9 8 7 8 10 9 9 9 11 15 16 16 17 7 2 7 8 11 10 10 10 9 10 12 16
14 15 14 13 13 14 12 13 13 12 11 9 8 8 9 9 8 8 9 9 9 10 14 13 9 11 15 16 15 16 9 2 2 2 4 6 6 6 6 6 7 10
12 13 13 12 14 14 12 12 11 10 10 11 10 8 8 8 9 8 10 10 10 9 9 9 8 8 10 16 14 13 13 4 2 3 2 1 1 3 4 4 4 4
Wind_Direction
293 302 300 295 290 290 288 284 293 301 305 308 301 298 295 301 298 288 276 267 269 275 278 277 277 274 272 268 262 259 256 257 255 251 249 245 246 247 246 241 236 228
304 302 298 294 286 284 295 313 312 305 301 298 294 292 289 288 280 272 270 279 281 278 279 277 272 269 265 261 255 253 254 250 249 245 248 245 245 244 243 240 236 229
306 303 293 288 296 312 308 303 302 297 295 291 287 283 283 275 272 274 279 276 275 274 271 269 267 264 258 255 256 255 252 249 247 243 242 244 243 240 238 235 232 227
305 298 311 318 311 307 309 307 302 297 290 290 296 311 315 318 317 312 304 289 278 270 269 274 276 279 279 273 267 261 250 243 242 240 241 241 236 236 235 232 231 227
304 304 299 304 307 307 310 301 292 297 310 308 308 308 305 306 303 294 288 288 288 289 287 280 282 280 274 265 265 267 247 237 233 234 239 241 236 231 230 228 226 227
306 306 311 305 297 300 298 297 297 296 299 302 301 301 294 289 286 283 279 279 275 272 273 276 275 274 267 267 269 270 257 240 238 239 240 237 237 229 226 221 222 224
316 317 311 305 303 301 300 296 297 298 298 295 295 286 284 279 277 275 273 274 277 276 274 274 271 270 270 270 280 287 263 243 241 243 244 236 235 228 221 218 217 218
318 314 309 309 308 303 299 295 286 284 287 288 284 283 279 275 274 272 272 273 273 272 270 265 264 265 271 287 297 303 310 274 246 241 241 239 230 225 225 220 220 219
313 310 310 309 306 302 296 294 291 289 289 285 283 280 272 273 269 267 270 273 270 266 262 258 263 281 290 293 294 295 298 309 289 246 230 225 224 223 226 218 217 215
314 313 310 307 302 300 298 295 294 291 288 288 291 289 288 286 288 292 295 294 293 276 269 290 300 300 298 290 289 286 289 293 300 290 243 226 221 222 218 214 210 213
316 313 310 309 308 307 305 304 300 298 296 295 290 290 290 289 287 287 287 288 288 295 303 303 301 297 292 290 285 284 283 285 292 296 283 236 218 217 216 208 206 207
317 315 314 313 311 309 307 306 304 301 300 297 293 289 280 275 276 276 279 281 283 286 288 287 288 286 282 283 282 280 277 279 284 286 290 291 245 221 214 204 205 205
317 317 316 315 314 312 311 309 307 306 303 301 299 291 282 277 275 273 270 268 270 272 273 275 276 275 277 275 276 278 279 279 281 284 287 284 275 248 221 209 205 207
319 318 318 316 315 314 313 311 309 307 305 301 297 293 287 281 276 274 274 271 271 270 268 267 267 267 265 268 269 272 277 277 272 272 273 275 271 257 239 219 214 211
321 321 318 317 315 314 313 311 310 307 305 301 297 293 290 286 284 283 278 273 268 263 265 261 259 258 256 252 255 255 255 259 259 256 259 266 264 254 240 230 222 218
322 319 317 316 314 313 312 311 310 308 304 301 297 294 288 284 280 277 273 270 271 269 263 259 256 253 257 259 256 250 243 244 249 251 252 253 253 253 245 232 227 222
320 319 317 316 316 312 312 312 310 307 302 299 295 290 286 284 279 274 271 267 265 265 262 256 251 250 258 258 258 254 249 240 239 246 246 245 247 246 248 240 234 227
320 318 317 315 314 313 313 310 308 306 303 297 292 291 289 285 278 269 267 263 261 261 260 261 258 262 262 260 257 254 248 241 235 239 240 240 241 240 241 242 241 237
320 319 317 315 314 313 311 308 305 302 299 298 295 292 287 277 273 275 272 266 261 264 266 264 263 263 266 266 261 255 250 243 236 224 225 232 233 235 237 239 238 237
321 319 317 315 314 313 311 308 304 302 298 293 289 287 284 284 284 279 277 271 265 262 261 260 256 265 266 265 262 256 248 243 231 231 225 224 226 228 231 233 230 228
322 320 318 317 315 312 311 308 307 302 299 297 291 290 291 285 281 283 275 270 265 257 254 258 258 266 268 265 262 256 249 240 226 224 225 223 221 221 225 227 227 224
321 318 317 316 314 313 312 309 306 303 301 300 297 293 287 283 281 276 279 281 276 266 258 257 263 273 273 271 264 258 250 237 222 218 218 220 222 225 225 227 226 222
320 318 317 315 315 313 310 306 308 308 307 306 303 299 300 299 298 294 290 288 289 285 268 267 278 280 281 293 293 278 245 224 220 214 213 212 217 218 221 223 221 219
317 316 316 315 316 313 310 311 307 303 303 304 298 300 301 305 297 290 287 290 298 302 299 301 296 288 307 320 325 337 1 221 205 205 202 208 212 215 220 221 218 214
315 314 313 311 309 309 307 305 306 304 300 296 295 290 291 292 298 302 301 305 303 299 303 306 305 308 311 318 325 338 353 34 35 151 181 193 201 206 210 210 208 213
313 312 312 313 310 307 305 301 298 300 304 309 304 301 301 305 307 305 303 301 300 299 298 297 298 298 301 306 321 329 340 7 53 46 29 98 186 213 203 221 219 216